Regional Weather Roundup
Issued by NWS Lake Charles, LA

Home | Current Version | Previous Version | Text Only | Print | Product List | Glossary On
Versions: 1 2 3 4 5 6 7 8 9 10 11 12 13 14 15 16 17 18 19 20 21 22 23 24 25 26 27 28 29 30 31 32 33 34 35 36 37 38 39 40 41 42 43 44 45 46 47 48 49 50
000
ASUS44 KLCH 040610
RWRLCH
REGIONAL WEATHER ROUNDUP
NATIONAL WEATHER SERVICE LAKE CHARLES LA
100 AM CDT WED MAY 04 2016

Note: "fair" indicates few or no clouds below 12,000 feet with no
significant weather and/or obstructions to visibility.


ACROSS SOUTHEAST TEXAS

CITY           SKY/WX    TMP DP  RH WIND       PRES   REMARKS
BEAUMONT       CLEAR     62  55  77 N7        30.03S
BEAUMONT CITY  FAIR      60  55  85 NW3       30.05S
ORANGE         CLEAR     60  53  77 CALM      30.05S
JASPER         CLEAR     54  53  97 CALM      30.07S
$$

ACROSS CENTRAL LOUISIANA

CITY           SKY/WX    TMP DP  RH WIND       PRES   REMARKS
LEESVILLE      CLEAR     56  51  85 N7        30.03S
FULLERTON      FAIR      57  52  83 CALM      30.01R
ALEXANDRIA INT CLEAR     56  54  93 NW5       30.01R
ESLER FIELD    CLEAR     60  53  77 N3        30.02R
DERIDDER       FAIR      57  53  86 NW3       30.05S
OAKDALE        CLEAR     57  55  92 CALM      30.02S
OPELOUSAS      FAIR     N/A N/A N/A N7        30.00S
$$

ACROSS SOUTHWEST AND SOUTH CENTRAL LOUISIANA

CITY           SKY/WX    TMP DP  RH WIND       PRES   REMARKS
SULPHUR        CLOUDY    61  57  85 NW3       30.04R
LAKE CHARLES   MOCLDY    64  53  67 N8        30.02S
CHENNAULT INT  MOCLDY    62  53  71 N6        30.02S
CAMERON PHI    MOCLDY    66  57  72 N10       30.05R
DEQUINCY       FAIR      56  56 100 CALM      30.04R
JENNINGS       CLOUDY    63  55  77 N7        30.01S
LAFAYETTE      MOCLDY    65  58  78 NW8       29.99S
NEW IBERIA     PTCLDY    63  58  83 N6        29.99S
ABBEVILLE      FAIR      61  59  94 N3        29.99S
PATTERSON      NOT AVBL
SALT POINT       N/A     65  61  87 N3        29.96S
$$

SELECTED SITES ACROSS THE REGION

CITY           SKY/WX    TMP DP  RH WIND       PRES   REMARKS
HOUSTON BUSH   CLEAR     61  53  75 NW5       30.07R
HOUSTON HOBBY  PTCLDY    64  51  62 N7        30.05S
GALVESTON      CLEAR     69  55  60 N13       30.05S
COLLEGE STAT   CLEAR     60  48  64 CALM      30.07F
CONROE         CLEAR     54  52  93 CALM      30.07S
HUNTSVILLE     CLEAR     55  51  86 CALM      30.07S
LUFKIN         PTCLDY    54  51  90 CALM      30.05S
SHREVEPORT     PTCLDY    57  53  86 W3        30.03R
MONROE         CLEAR     56  55  97 CALM      30.02S
NATCHEZ MS     CLEAR     55  52  88 CALM      30.01R
BATON ROUGE    CLEAR     62  54  74 VRB3      29.98R
N.O. INTL ARPT PTCLDY    69  57  65 N10       29.95S
SLIDELL        CLEAR     63  59  87 N3        29.94S
$$

MARINE REPORTS

STATION/POSITION TIME  SKY/WX   TEMP    WIND        PRES    VSBY
                                AIR SEA DIR/SP/G
                 (UTC)          (F)     (DEG/KT/KT) (MB)    (MI)
BUOY 30 S HIGH I 0550            71 75  350/ 14/ 17 1016.3S
WVE H/P(F/S)=  2/ 4

SEA RIM ST PARK  0600            64     360/  5/  6 1017.6R
PORT ARTHUR      0500               75   10/  5/  6 1017.1R
SABINE PASS N    0500            69 77   10/  9/ 10 1018.1R
TEXAS POINT      NOT AVBL
CALCASIEU PASS   0500            68 76   20/ 11/ 14 1015.5R
LK CHARLES BEACH 0500            64 73              1017.0R
MARSH ISLAND     NOT AVBL
FRESH WATER LOCK 0500            67 75  310/  6/  8 1016.0R
AMERADA PASS     0500            69 72  300/  5/  9 1014.5S
$$



USA.gov is the U.S. government's official web portal to all federal, state and local government web resources and services.